Theta_e
311 310 309 309 308 308 308 308 307 307 306 306 306 305 305 305 306 300 297 302 302 297 297 301 304 301 302 302 295 299 303 304 303 303 302 301 301 302 301 302 301 298 297 296 297 294 293 309 309 303 305 303 308 308
310 309 308 308 307 307 307 307 307 307 307 307 306 305 305 304 305 303 294 306 307 301 297 301 304 307 307 307 301 301 301 304 306 301 302 303 303 302 300 297 306 300 302 302 300 299 306 308 309 311 309 309 309 309
310 309 308 307 307 307 307 307 307 308 307 306 306 305 305 304 304 302 294 296 303 300 296 295 297 304 307 307 308 302 304 307 304 307 305 306 304 303 297 300 303 306 309 303 303 305 308 311 311 312 312 310 312 313
309 308 307 306 306 306 307 307 307 307 307 306 306 306 305 304 304 303 292 296 300 300 293 294 303 299 310 309 308 311 307 307 307 309 305 303 302 307 302 303 304 307 308 304 305 309 310 311 313 311 314 314 314 314
308 307 306 305 304 305 307 307 306 307 306 306 306 306 305 304 306 299 294 294 299 299 291 292 298 300 301 303 305 309 308 306 305 303 303 303 307 306 304 304 302 309 306 303 302 311 312 312 317 315 313 313 314 313
305 305 305 305 306 306 306 306 306 306 306 306 306 306 305 305 304 293 290 299 299 304 297 288 295 297 300 302 305 307 307 307 306 305 303 307 310 307 300 299 306 311 312 311 311 315 316 318 318 316 314 314 314 313
304 304 303 304 306 306 306 306 306 306 306 305 305 306 306 305 295 290 290 298 302 299 296 290 289 296 300 298 301 305 306 306 308 304 305 305 307 308 304 301 310 313 316 316 317 318 315 317 312 315 315 315 314 313
304 305 305 306 306 306 306 306 305 305 306 305 306 306 305 304 298 290 291 303 302 298 299 289 287 293 302 297 297 305 304 305 306 306 304 305 310 306 303 309 313 316 317 318 319 320 319 317 313 313 313 313 311 310
305 304 305 305 306 306 306 306 305 305 306 306 306 305 297 293 288 290 304 304 302 296 293 293 287 287 299 298 298 301 305 301 305 303 302 304 302 300 307 309 312 316 315 316 318 320 319 314 311 311 311 310 309 308
305 305 305 306 306 306 306 306 306 306 306 306 298 290 285 291 301 306 297 292 291 292 293 289 290 288 296 294 296 298 300 299 297 301 304 301 300 308 310 313 315 317 318 318 314 312 311 309 309 309 310 310 311 310
304 305 305 306 306 306 306 306 306 306 303 294 288 291 297 307 297 292 288 288 288 287 290 289 289 287 295 295 295 301 300 298 294 298 299 297 298 304 310 311 319 319 320 319 318 317 313 312 310 309 309 310 310 309
304 305 305 306 306 306 306 306 305 296 292 294 296 301 298 293 289 286 284 287 287 286 290 290 290 291 292 299 298 300 296 300 294 301 298 294 301 305 308 311 318 319 319 319 319 316 313 311 311 311 310 309 308 309
303 304 305 305 306 305 306 306 304 303 301 297 296 294 290 287 278 282 281 283 283 288 291 293 294 293 294 294 294 295 296 295 302 297 295 298 303 305 307 311 315 319 319 320 319 317 314 312 313 311 309 309 310 310
303 304 305 305 306 306 306 306 305 301 296 290 288 283 287 282 285 284 284 285 289 293 294 297 297 295 293 289 293 294 299 299 294 293 295 300 303 306 308 313 313 317 318 318 319 316 313 312 311 311 310 311 311 309
303 304 304 305 305 305 306 305 305 298 291 289 289 280 284 288 289 290 291 288 290 295 294 293 295 298 295 292 295 297 294 293 295 295 300 304 305 307 310 312 313 315 317 317 315 315 312 311 310 309 310 310 310 310
303 303 300 304 305 305 305 303 300 299 292 290 289 286 287 286 287 290 288 290 294 293 293 292 289 288 292 293 293 293 294 293 294 298 301 306 307 309 311 311 313 315 317 317 315 314 312 311 310 309 309 310 311 311
302 295 303 304 304 304 303 298 296 292 292 289 285 288 288 287 288 289 291 292 296 294 288 289 286 287 295 292 292 298 291 294 297 299 301 303 307 308 311 313 316 317 317 317 314 313 311 311 311 310 308 308 310 310
294 299 304 303 302 300 297 297 293 291 286 287 283 286 287 290 291 290 293 294 293 293 291 287 291 289 289 288 290 294 297 299 300 299 302 304 308 312 314 313 317 316 315 314 314 312 311 311 310 309 308 309 309 309
298 301 303 303 299 295 292 293 294 287 287 286 286 287 287 288 290 292 294 294 294 296 293 290 288 287 290 297 297 298 298 298 296 298 303 306 309 313 314 315 316 313 313 313 312 312 312 312 311 310 310 311 309 309
302 302 302 302 301 294 290 290 294 290 285 286 286 286 286 287 290 292 293 293 292 291 289 288 289 292 294 297 300 298 299 300 301 300 301 304 309 311 313 315 314 313 313 313 311 307 311 310 311 311 312 310 310 309
300 301 302 300 297 296 293 290 287 287 287 285 287 286 285 286 287 287 290 292 290 289 288 291 293 295 298 300 301 301 302 301 302 302 303 304 309 312 314 318 314 315 312 312 311 309 309 311 311 310 310 311 312 312
297 301 297 297 292 293 291 294 288 288 286 286 286 286 284 284 284 286 290 290 289 291 292 293 295 296 298 298 299 300 302 304 304 306 301 304 308 310 312 314 317 315 314 314 312 312 312 312 312 312 312 311 310 310
299 297 294 294 290 288 286 293 289 287 283 284 285 284 284 285 287 290 287 289 290 292 294 296 297 297 298 300 301 301 302 304 305 307 308 310 312 313 314 317 319 315 312 313 315 314 312 304 304 312 311 312 309 308
300 293 290 289 288 283 289 286 289 287 286 284 284 283 284 286 288 286 284 286 290 290 290 292 294 295 296 300 299 301 303 308 308 309 311 311 310 312 314 319 319 317 316 316 315 314 312 313 306 311 312 309 309 310
286 287 287 283 287 285 285 286 286 285 283 285 285 285 286 289 285 285 285 287 289 290 291 292 292 295 295 296 298 300 306 309 307 306 309 311 311 314 318 318 318 317 317 314 313 313 312 311 312 311 310 310 310 308
281 287 283 284 285 285 285 283 284 284 285 284 285 287 287 285 284 284 286 289 290 293 295 295 294 294 295 297 297 299 304 310 309 307 309 311 314 313 316 313 312 311 316 317 315 312 311 311 311 310 309 304 297 308
280 283 286 290 288 287 284 286 287 284 284 284 284 284 284 282 283 286 292 295 295 298 302 303 304 302 302 303 304 306 308 310 310 310 311 312 315 318 319 314 313 314 316 316 315 314 312 311 310 309 308 308 309 309
286 287 284 287 286 285 284 284 285 284 285 286 287 284 284 285 283 292 294 297 298 299 300 304 305 304 305 307 307 306 308 311 312 312 314 317 320 321 322 318 314 296 315 317 316 315 313 311 310 309 309 308 308 309
286 288 287 284 285 284 284 284 285 287 288 287 285 285 286 290 293 294 295 298 299 299 300 301 303 304 305 307 309 308 307 312 310 308 311 311 313 314 315 312 311 312 312 310 296 307 312 311 311 310 310 309 309 309
286 288 285 286 284 283 285 288 287 289 289 289 290 290 290 291 293 295 297 298 297 298 301 302 303 304 303 305 308 311 312 314 316 314 311 310 313 316 315 312 312 312 313 311 305 300 293 304 302 309 308 308 307 305
288 288 287 286 284 287 289 290 290 290 290 290 291 289 288 290 292 295 296 297 299 300 300 301 302 303 306 308 310 310 308 313 318 319 317 318 317 315 313 313 313 312 310 309 310 310 308 309 309 308 307 306 304 303
286 286 286 285 285 289 290 288 287 287 287 288 288 290 290 289 289 293 297 297 297 298 296 298 302 303 308 312 315 316 301 316 316 319 319 318 317 316 314 312 311 311 311 310 310 309 309 309 308 307 305 304 304 303
284 285 285 283 284 286 288 288 287 287 287 287 288 290 290 289 288 292 298 300 299 299 301 304 307 309 312 314 315 315 304 318 313 298 298 296 296 304 311 312 312 311 310 310 309 308 307 307 306 306 305 304 304 303
Wind_Speed
22 28 29 28 25 23 21 19 17 15 14 12 9 7 4 1 3 2 3 3 3 2 5 4 2 2 3 2 2 6 2 3 5 6 3 3 2 2 4 3 4 3 4 3 3 4 3 5 4 8 8 3 3 4
21 28 29 28 25 22 20 18 16 15 13 12 10 8 5 2 1 3 1 1 1 2 5 3 5 9 11 7 0 3 3 3 3 4 4 2 3 3 2 1 4 2 3 4 6 6 4 5 5 6 2 3 4 5
22 28 29 27 25 23 20 18 17 16 13 12 10 7 5 3 1 4 1 3 1 2 4 2 6 6 10 17 6 2 2 4 3 2 3 2 3 1 2 2 2 2 0 1 3 3 5 4 3 2 4 1 4 4
28 30 29 27 24 21 17 17 16 15 14 12 10 8 5 3 0 3 1 2 0 2 3 6 4 5 1 6 11 6 4 4 3 2 2 2 2 1 1 2 2 4 2 3 3 6 5 2 3 2 5 7 11 9
29 31 30 26 22 20 20 17 15 14 13 12 9 8 5 2 1 1 2 3 3 1 3 5 10 7 6 9 11 8 6 3 2 4 1 2 2 2 1 1 4 4 6 5 6 4 3 6 5 1 5 7 8 14
30 29 27 25 24 21 18 16 15 14 13 11 9 7 5 2 4 3 3 2 2 3 2 4 5 5 5 4 9 6 5 3 3 3 3 3 1 3 1 3 7 5 4 5 2 2 4 6 6 3 6 7 7 9
30 28 26 23 21 19 17 16 15 13 12 10 8 5 4 3 3 3 5 3 2 1 1 5 5 5 3 4 3 3 2 3 3 3 3 2 1 3 1 4 7 7 6 4 2 3 5 4 2 7 6 8 10 9
28 25 24 22 20 19 17 16 15 13 11 9 6 4 2 3 3 4 4 10 3 1 1 3 5 5 2 1 2 3 3 2 4 4 1 2 1 1 4 12 6 4 5 6 7 8 5 5 3 8 6 9 11 9
25 24 22 21 19 18 16 15 14 12 11 9 6 5 3 2 0 5 3 10 3 3 2 2 2 4 4 1 2 1 5 1 3 4 4 4 2 5 10 9 3 6 6 4 8 5 6 5 7 8 7 7 10 7
22 22 21 19 18 17 15 14 14 13 11 10 3 2 1 4 6 9 4 3 3 1 1 4 2 4 1 3 3 1 2 5 5 7 3 4 5 9 11 8 5 10 10 1 5 4 3 1 8 7 7 7 9 10
19 20 19 18 17 16 15 14 14 14 8 2 2 2 3 4 3 2 1 1 2 3 4 4 5 2 2 1 2 2 2 3 4 5 7 4 5 9 14 16 6 6 6 5 5 5 6 6 6 7 7 7 8 11
16 17 16 16 16 16 14 14 16 4 4 6 2 0 2 2 2 2 3 2 4 5 3 4 5 5 4 0 1 3 2 2 5 2 3 3 6 7 9 14 9 10 8 8 6 8 7 8 8 8 9 8 7 9
14 15 15 15 15 14 13 14 10 3 1 1 2 1 2 1 2 4 5 4 2 3 4 3 2 4 2 2 1 2 3 6 2 3 5 1 9 9 8 10 8 11 8 8 6 6 8 8 8 8 9 7 9 10
12 14 13 13 13 13 13 11 10 4 4 3 3 2 3 3 4 5 5 3 4 2 3 3 2 2 2 2 2 3 4 3 4 3 3 2 5 11 10 9 8 11 9 10 9 8 9 10 8 8 10 12 11 11
13 14 14 12 13 13 12 9 10 2 2 1 1 3 5 5 3 3 4 2 4 2 1 2 3 1 2 2 3 3 4 4 3 3 2 7 11 10 11 12 10 11 6 6 7 9 8 9 10 8 8 9 10 11
13 11 4 11 13 13 13 10 3 2 2 1 2 3 3 0 4 2 2 2 2 3 2 3 3 2 3 3 4 5 3 2 4 6 10 13 15 13 13 11 12 11 9 8 10 11 12 12 12 11 9 10 10 13
12 3 11 15 15 15 13 4 2 2 3 3 3 4 4 4 5 4 2 2 2 3 1 2 2 4 0 3 4 2 3 4 7 9 9 13 16 16 14 13 12 10 10 11 11 12 12 10 13 12 11 5 10 10
2 5 18 18 12 7 2 2 2 4 4 4 2 4 2 3 4 3 2 0 3 2 2 2 3 2 2 3 4 2 5 5 7 9 9 12 13 14 11 14 13 6 9 10 12 13 13 15 13 8 11 9 10 9
4 7 20 21 10 4 3 2 1 3 6 3 4 3 2 3 4 3 1 1 2 2 4 2 0 2 3 2 3 2 4 4 9 10 9 11 10 12 13 14 4 5 11 14 15 11 9 11 10 10 9 10 9 7
11 18 22 21 8 2 3 2 2 3 3 5 2 3 3 3 2 1 1 1 2 2 1 2 4 4 4 4 4 5 7 7 5 8 10 7 7 12 10 9 4 5 6 6 8 13 10 8 7 9 9 10 10 8
8 13 19 9 2 2 3 3 2 4 3 3 2 3 3 0 2 3 3 3 2 4 3 4 4 5 6 7 5 6 10 5 7 5 8 9 9 8 7 8 2 4 4 5 10 9 10 9 8 8 10 8 8 8
3 11 3 3 3 4 2 3 3 2 3 3 1 2 2 2 3 4 3 2 4 5 5 5 5 5 7 8 9 9 9 7 7 5 8 7 7 6 5 6 2 4 4 4 7 11 9 9 9 9 9 8 9 7
11 5 4 4 4 5 5 3 3 4 3 4 2 1 2 2 4 3 4 5 5 6 6 7 8 8 10 13 11 13 8 7 4 4 6 7 6 6 5 4 3 5 4 4 6 9 10 11 9 10 9 9 8 7
7 4 5 7 4 6 2 3 3 2 1 2 3 4 3 4 2 1 5 4 5 3 4 7 6 7 5 6 6 9 6 4 4 4 5 6 7 7 5 5 5 5 6 4 7 10 10 10 11 10 10 10 9 9
5 5 5 5 4 4 5 4 4 3 3 4 3 2 3 2 2 3 4 4 3 4 6 5 5 7 8 8 4 7 4 4 4 4 4 4 8 8 4 5 5 7 8 9 9 12 10 10 9 10 10 10 11 10
3 7 8 8 5 6 6 6 6 6 4 5 5 3 2 3 3 6 3 3 2 3 3 2 4 4 5 7 7 6 4 3 3 4 5 7 5 3 2 7 8 4 7 8 11 13 13 11 11 13 11 11 12 13
4 6 4 4 3 3 3 2 2 3 6 6 3 3 2 3 5 4 2 3 4 4 4 4 4 4 6 7 4 3 5 4 4 7 8 10 8 5 5 5 9 7 7 11 12 13 14 13 13 12 12 11 12 13
4 3 6 5 3 3 4 4 5 6 4 4 4 4 5 6 5 4 5 4 4 4 5 4 4 4 4 7 4 0 4 6 7 11 12 10 8 6 6 5 6 12 8 11 12 12 13 14 13 14 15 13 10 10
3 2 4 4 2 2 5 6 6 4 4 5 5 5 5 4 3 3 4 4 3 2 5 7 7 3 5 4 4 5 4 6 4 6 6 5 6 4 3 6 9 8 8 8 9 14 18 15 15 14 15 13 11 10
4 4 3 6 6 6 5 6 4 4 3 4 3 1 2 3 5 3 3 4 4 5 6 5 5 3 5 6 6 5 1 5 7 6 5 3 2 3 0 5 10 10 10 12 12 11 14 14 13 12 13 11 10 10
2 3 3 3 4 5 5 4 1 1 1 2 3 4 5 5 4 4 6 5 6 5 4 6 5 4 4 6 5 3 4 4 5 3 2 2 4 5 5 3 8 10 11 14 14 14 14 14 13 14 15 15 14 13
3 5 5 3 4 4 2 3 3 3 3 3 4 4 3 2 6 5 5 5 5 7 8 5 6 8 5 5 5 5 5 8 6 5 2 3 3 6 7 5 8 11 13 13 14 15 17 16 13 14 14 17 16 15
3 2 2 2 0 1 1 2 2 3 3 4 6 6 7 7 11 7 4 5 6 6 7 6 6 5 6 6 5 5 4 5 11 6 8 3 2 6 6 6 8 11 15 13 13 15 16 19 15 16 17 17 16 14
Wind_Direction
214 190 179 176 174 180 183 181 186 188 190 195 197 204 206 259 355 83 264 221 155 237 271 247 278 277 306 285 3 302 292 331 330 59 41 342 30 3 46 1 333 189 139 150 92 92 245 345 37 153 222 202 155 150
202 182 174 169 171 175 176 177 180 183 186 188 188 194 196 220 10 96 315 350 189 234 248 284 254 254 240 251 122 293 293 296 23 36 26 312 327 2 118 291 340 326 201 174 159 215 239 247 229 273 218 194 166 171
189 174 164 163 166 174 176 176 179 180 176 181 185 189 199 210 28 97 257 305 335 261 298 326 235 258 218 232 200 240 296 2 5 206 205 251 286 145 68 296 296 308 50 60 64 270 266 286 284 35 12 247 110 87
175 166 158 157 164 168 171 170 164 163 171 178 183 189 197 208 347 82 112 273 44 281 281 282 316 299 59 184 202 220 282 339 286 279 234 206 243 35 186 233 218 215 342 218 252 286 295 267 31 22 90 83 87 73
161 153 150 153 157 175 173 160 162 167 173 179 182 187 195 209 351 86 197 239 232 226 288 288 306 257 229 201 216 202 224 252 326 308 299 238 222 98 322 346 252 189 192 176 219 208 171 255 297 103 133 124 122 114
144 145 149 156 163 158 157 158 166 168 169 177 184 186 189 187 86 62 23 336 194 189 282 296 289 296 331 181 178 191 211 205 219 268 256 288 247 120 141 258 256 226 199 194 271 266 267 295 276 107 116 130 120 118
138 140 148 162 159 154 156 161 164 163 170 172 175 178 169 124 94 156 189 208 346 345 255 293 305 274 286 179 193 132 284 234 197 241 234 226 253 117 175 246 257 237 231 185 196 69 311 288 238 106 113 100 90 86
143 151 152 149 150 152 155 160 159 163 160 160 159 152 145 59 15 319 248 227 149 71 298 282 274 322 31 246 195 150 158 216 224 228 351 200 104 106 249 247 273 300 249 228 183 205 217 265 128 83 91 111 105 115
139 146 146 147 149 151 152 155 159 155 155 144 135 119 59 53 196 239 246 119 82 127 256 242 262 274 357 301 260 235 133 231 332 202 223 121 195 220 235 254 276 259 210 229 130 191 227 172 126 117 125 107 123 127
139 141 143 145 148 147 151 156 156 153 135 127 87 94 295 226 218 140 28 54 27 345 262 253 301 266 33 351 297 293 167 182 182 225 122 190 240 248 266 246 234 247 221 80 36 340 36 108 149 161 163 134 152 147
140 139 142 144 147 151 154 152 143 129 102 77 130 205 247 118 79 41 109 138 234 248 208 233 196 223 295 308 296 347 316 208 188 237 168 210 241 232 239 256 214 234 190 184 155 162 161 167 178 136 127 132 138 137
137 138 141 149 154 155 149 147 141 97 165 185 181 345 56 34 56 163 205 211 195 229 202 182 210 194 269 185 279 348 274 248 236 134 142 232 253 241 226 243 195 206 214 212 180 161 160 155 151 142 137 136 131 120
151 149 152 152 151 151 152 154 156 105 59 52 92 308 83 245 91 205 198 239 241 222 187 170 156 164 356 48 19 37 293 239 323 165 204 147 336 337 292 252 214 217 204 201 159 151 154 138 136 140 131 112 123 127
166 154 152 153 155 155 151 161 172 28 52 77 140 162 231 215 236 198 203 219 247 266 160 136 127 152 160 107 217 218 252 307 269 214 155 304 313 317 307 310 310 247 176 187 141 143 155 146 144 134 134 135 137 135
167 159 156 159 160 156 150 150 143 59 81 23 99 233 218 240 277 251 240 266 257 152 106 59 63 37 44 282 201 251 243 252 228 28 29 316 312 307 309 303 304 259 243 156 146 154 142 136 139 128 132 131 131 128
163 143 163 164 160 152 143 123 62 29 38 287 230 286 284 53 311 311 259 243 218 113 85 57 108 116 174 234 219 220 251 66 1 331 323 318 319 315 310 300 289 278 203 182 168 156 150 144 151 139 119 130 136 133
142 158 166 156 156 143 126 84 86 157 245 234 256 243 229 246 245 257 245 263 296 78 44 108 138 197 191 236 234 24 52 305 310 310 303 307 308 309 307 304 299 265 182 175 155 157 137 130 127 126 132 137 131 135
121 167 155 151 121 83 41 74 179 181 221 240 245 275 220 243 292 296 293 277 89 123 113 220 158 171 242 280 14 27 297 281 283 294 293 303 300 303 307 314 303 206 153 150 146 135 134 139 137 144 130 128 114 116
156 157 151 134 114 105 141 150 259 214 228 256 248 239 236 258 258 252 265 344 115 136 106 59 353 211 236 204 224 266 274 260 288 298 299 302 299 303 314 327 313 129 145 145 145 145 144 139 140 137 136 136 131 136
171 154 143 138 126 105 141 146 196 246 231 227 242 228 185 222 269 287 179 192 91 66 30 211 218 223 216 233 216 260 269 269 283 295 310 315 318 323 313 326 322 106 111 122 111 107 112 108 119 133 138 136 136 141
123 149 139 118 66 289 223 158 207 217 228 203 242 160 234 147 192 210 233 157 101 184 233 226 234 248 241 252 241 253 267 249 254 251 291 305 314 308 310 319 137 101 109 154 133 128 132 141 140 134 133 132 133 140
128 122 96 106 188 193 261 202 216 235 160 224 257 178 187 202 215 220 154 168 221 218 205 212 236 242 260 264 265 251 249 244 238 256 269 271 291 301 319 322 192 141 139 154 164 147 137 134 136 137 131 130 131 129
114 125 156 154 202 181 245 144 207 202 181 221 129 192 266 236 228 129 206 210 230 217 213 225 242 243 244 262 271 272 257 233 232 252 273 273 275 314 305 276 208 119 142 140 179 141 133 133 128 129 126 127 125 123
105 123 163 179 183 199 187 214 234 199 214 159 151 192 222 214 193 203 240 241 246 232 219 238 234 254 266 248 254 266 265 192 218 251 254 284 302 296 306 266 142 139 143 134 171 129 136 140 125 129 133 128 133 140
132 158 149 187 200 185 203 171 175 175 199 202 200 246 253 145 196 247 235 263 247 249 254 257 245 230 245 258 259 264 221 183 210 254 260 264 278 251 184 128 162 154 153 157 148 139 136 139 128 132 134 136 138 140
164 191 172 186 173 179 179 159 184 195 172 183 228 230 156 163 215 256 232 241 246 249 254 262 260 258 253 225 242 266 182 171 205 252 257 241 253 322 311 165 156 172 172 159 149 142 141 139 135 135 135 136 132 132
182 188 205 221 174 157 147 150 135 144 186 200 205 189 191 240 239 247 271 239 225 236 227 241 247 249 262 286 253 209 156 149 221 268 288 288 276 233 221 197 178 166 153 144 140 146 142 135 135 135 136 143 147 141
238 197 175 179 180 193 156 148 161 188 201 218 136 185 207 211 230 229 210 250 241 293 281 267 241 241 270 281 283 166 153 170 213 244 263 261 255 247 208 201 138 137 145 146 142 137 133 132 136 142 140 137 135 136
235 227 123 162 162 194 210 190 205 211 201 162 179 208 240 232 217 214 254 254 276 296 298 301 301 297 298 287 234 221 164 171 209 273 305 330 357 358 14 125 133 126 130 133 122 133 135 137 140 141 140 135 133 132
240 165 151 162 176 208 234 185 205 232 192 189 179 326 301 272 245 220 239 266 266 255 257 254 267 278 290 295 306 330 340 196 195 186 176 161 246 171 84 139 133 129 131 122 109 101 100 106 105 114 118 120 122 122
174 147 163 165 201 218 223 215 247 191 169 215 212 201 239 253 282 243 218 229 235 246 253 264 265 237 253 287 280 253 197 224 260 281 73 115 166 123 96 113 130 126 125 128 130 127 129 131 134 132 133 132 136 138
167 178 159 184 255 265 122 176 209 211 239 206 246 224 280 254 259 267 230 202 225 245 243 229 253 273 238 250 269 255 244 143 168 283 94 124 124 111 106 120 122 122 124 123 128 130 130 133 139 137 135 137 141 139
158 141 137 150 280 219 264 141 247 261 235 235 241 226 231 224 242 242 264 197 195 206 216 217 226 234 251 265 245 258 237 160 154 160 154 188 185 127 132 137 131 126 124 127 130 129 129 133 136 140 138 138 136 129